sat.trackr.live / text

‹ back to catalog

STARLINK-5181

NORAD 54070 · 2022-136V

PAYLOAD ACTIVE UNKNOWN

§ Identity

Operator
Country
US
Launch date
2022-10-20
Launch site
AFETR
Launch vehicle
Mass (kg)
RCS (m²)

Purposes: comms

External: N2YO · Heavens-Above · Gunter

§ Orbital elements

Epoch: 2026-05-24T23:13:16.801248Z

Period
95.44 min
Inclination
53.2126°
Eccentricity
0.0001128
Mean motion
15.08829789 rev/d
Perigee alt
539.0 km
Apogee alt
540.6 km
Semi-major
6,917.9 km
B*
7.9703e-5
RAAN
1.3912°
Arg perigee
86.8855°
Mean anomaly
273.2266°
Rev number
19,836

§ Raw data

STARLINK-51811 54070U 22136V   26144.96755557  .00000981  00000+0  79703-4 0  99932 54070  53.2126   1.3912 0001128  86.8855 273.2266 15.08829789198367

JSON: /api/v1/satellites/54070 · /tle

For live sub-satellite position, see the globe view (requires WebGL).

§ Visibility from observer

Set your observer location to see the next 7 days of passes ≥ 10°. The values pass through the URL so the page stays shareable.

No JS? Fill the form by hand. The geolocation button needs JavaScript.